Flag for U.S.A. Weather past 2 weeks in Tampa, Florida, U.S.A.

Now
81 °F

Heavy rain. Cloudy.


Feels Like: 88 °F
Forecast: 78 / 85 °F
Wind: 6 mph from Southwest

Location: Tampa, Peter O Knight Airport

Current Time: Jul 27, 2015 at 9:46:40 PM

Latest Report: Jul 27, 2015 at 9:15 PM


Visibility: 2 mi

Pressure: 29.92 "Hg

Humidity: 94%

Dew point: 79 °F

Location of TampaLocation

Historic Weather in Tampa — Graph

°F

Tampa temperature yesterday

Maximum temperature yesterday: 82 °F (at 9:15 AM)
Minimum temperature yesterday: 77 °F (at 1:35 AM)
Average temperature yesterday: 78 °F

Past Weeks' High & Low Weather Summary

 TemperatureHumidityPressure
High91 °F (Jul 13, 12:55 PM)100% (Jul 25, 10:35 AM)30.09 "Hg (Jul 25, 10:35 AM)
Low77 °F (Jul 24, 12:15 PM)56% (Jul 22, 5:35 PM)29.86 "Hg (Jul 26, 3:55 AM)
Average83 °F82%29.98 "Hg
* Reported Jul 12 8:15 PM — Jul 27 8:55 PM, Tampa, Weather by CustomWeather, © 2015

Note: Actual official high and low records may vary slightly from our data, if they occured in-between our weather recording intervals... More about our weather records

Advertising

Tampa weather history for previous 24 hours

 ConditionsComfort  
Time TempWeatherWind HumidityBarometerVisibility
8:55 PM
Mon, Jul 27
81 °FHeavy rain. Mostly cloudy.14 mph94%29.93 "Hg1 mi
8:35 PM81 °FMore clouds than sun.8 mph94%29.92 "Hg10 mi
8:15 PM82 °FLight rain. Mostly cloudy.16 mph89%29.92 "Hg7 mi
7:55 PM82 °FLight rain. Mostly cloudy.15 mph89%29.92 "Hg7 mi
7:35 PM82 °FDrizzle. Overcast.13 mph84%29.91 "Hg10 mi
7:15 PM82 °FLight rain. Overcast.12 mph89%29.91 "Hg10 mi
6:55 PM81 °FMostly cloudy.10 mph94%29.91 "Hg10 mi
6:15 PM82 °FDrizzle. Cloudy.13 mph84%29.92 "Hg10 mi
5:55 PM82 °FMore clouds than sun.10 mph74%29.93 "Hg10 mi
5:35 PM82 °FCloudy.13 mph89%29.93 "Hg10 mi
5:15 PM82 °FCloudy.13 mph84%29.93 "Hg10 mi
4:55 PM82 °FBroken clouds.5 mph79%29.93 "Hg10 mi
4:35 PM82 °FSunny.3 mph79%29.93 "Hg10 mi
4:15 PM81 °FScattered clouds.5 mph84%29.93 "Hg10 mi
3:55 PM81 °FMore clouds than sun.7 mph84%29.95 "Hg10 mi
3:35 PM79 °FPartly sunny.3 mph89%29.95 "Hg10 mi
3:15 PM79 °FLight rain. Partly sunny.5 mph94%29.95 "Hg7 mi
2:55 PM79 °FLight rain. Cloudy.5 mph94%29.96 "Hg5 mi
2:35 PM79 °FLight rain. Cloudy.7 mph94%29.96 "Hg4 mi
2:15 PM79 °FRain. Cloudy.7 mph94%29.97 "Hg3 mi
1:55 PM81 °FLight rain. Cloudy.18 mph89%29.97 "Hg7 mi
1:15 PM82 °FMore clouds than sun.14 mph84%29.96 "Hg10 mi
12:55 PM82 °FMore clouds than sun.9 mph89%29.97 "Hg10 mi
12:35 PM81 °FDrizzle. More clouds than sun.7 mph89%29.97 "Hg10 mi
12:15 PM81 °FCloudy.7 mph89%29.97 "Hg10 mi
11:55 AM81 °FCloudy.9 mph89%29.97 "Hg10 mi
11:35 AM81 °FCloudy.8 mph94%29.97 "Hg7 mi
11:15 AM81 °FDrizzle. Cloudy.9 mph94%29.97 "Hg10 mi
10:55 AM81 °FLight rain. Mostly cloudy.7 mph89%29.97 "Hg3 mi
10:15 AM79 °FLight rain. Cloudy.6 mph94%29.96 "Hg2 mi
9:55 AM81 °FMostly cloudy.7 mph89%29.96 "Hg7 mi
9:35 AM82 °FCloudy.10 mph89%29.94 "Hg10 mi
9:15 AM82 °FMostly cloudy.6 mph89%29.93 "Hg10 mi
8:55 AM81 °FLight rain. Broken clouds.7 mph94%29.93 "Hg7 mi
8:35 AM81 °FBroken clouds.6 mph89%29.92 "Hg10 mi
8:15 AM81 °FMostly cloudy.6 mph89%29.92 "Hg10 mi
7:55 AM81 °FWarm.5 mph94%29.91 "Hg10 mi
Weather by CustomWeather, © 2015

See weather overviewHow to use our weather pages